Location: Crescent
(42.8242°N, 73.7329°W)
Time: 08:30:50
(UTC+00:00)

Vanguard 1 - All Passes

Search period start: 16 February 2026 00:00
Search period end: 26 February 2026 00:00
Orbit: 652 x 3820 km, 34.3° (Epoch: 13 February)

Date Brightness Start Highest point End Pass type
(mag) Time Alt. Az. Time Alt. Az. Time Alt. Az.
16 Feb - 01:47:19 10° W 02:06:35 51° SSW 02:27:48 10° SE visible
16 Feb - 04:14:02 10° W 04:30:04 25° SW 04:45:04 10° S visible
16 Feb - 19:06:15 10° SSW 19:14:56 32° SE 19:28:55 10° E daylight
16 Feb - 21:23:46 10° WSW 21:36:15 60° SSE 21:57:12 10° E daylight
16 Feb - 23:44:13 10° W 00:00:46 64° S 00:23:47 10° ESE visible
17 Feb - 02:07:04 10° W 02:25:54 45° SSW 02:46:22 10° SSE visible
17 Feb - 04:35:45 10° W 04:48:49 19° SW 05:01:15 10° SSW visible
17 Feb - 19:24:36 10° SSW 19:33:43 39° SE 19:49:06 10° E daylight
17 Feb - 21:42:52 10° WSW 21:55:40 63° S 22:17:03 10° E daylight
18 Feb - 00:03:38 10° W 00:20:22 60° SSW 00:43:09 10° ESE visible
18 Feb - 02:26:59 10° W 02:45:08 38° SW 03:04:36 10° SSE visible
18 Feb - 04:59:37 10° WSW 05:07:32 13° SW 05:15:15 10° SSW visible
18 Feb - 17:29:19 10° SSE 17:33:39 14° SE 17:39:06 10° E daylight
18 Feb - 19:43:13 10° SW 19:52:40 45° SSE 20:09:09 10° E daylight
18 Feb - 22:02:03 10° WSW 22:15:09 64° S 22:36:51 10° ESE daylight
19 Feb - 00:23:05 10° W 00:39:55 56° SSW 01:02:18 10° SE visible
19 Feb - 02:47:10 10° W 03:04:16 32° SW 03:22:24 10° SSE visible
19 Feb - 17:46:17 10° S 17:52:08 20° SE 18:00:30 10° E daylight
19 Feb - 20:02:01 10° SW 20:11:45 51° SSE 20:29:06 10° E daylight
19 Feb - 22:21:17 10° W 22:34:41 64° S 22:56:33 10° ESE visible
20 Feb - 00:42:38 10° W 00:59:24 50° SSW 01:21:13 10° SE visible
20 Feb - 03:07:49 10° W 03:23:18 26° SW 03:39:36 10° S visible
20 Feb - 18:04:06 10° SSW 18:10:45 26° SE 18:21:04 10° E daylight
20 Feb - 20:20:58 10° WSW 20:30:58 56° SSE 20:49:01 10° E daylight
20 Feb - 22:40:34 10° W 22:54:15 62° S 23:16:09 10° ESE visible
21 Feb - 01:02:16 10° W 01:18:49 44° SSW 01:39:50 10° SE visible
21 Feb - 03:29:15 10° W 03:42:16 19° SW 03:55:51 10° S visible
21 Feb - 18:22:22 10° SSW 18:29:30 33° SE 18:41:17 10° E daylight
21 Feb - 20:40:00 10° WSW 20:50:18 59° S 21:08:53 10° E daylight
21 Feb - 22:59:53 10° W 23:13:47 58° SSW 23:35:35 10° ESE visible
22 Feb - 01:22:05 10° W 01:38:10 38° SSW 01:58:06 10° SSE visible
22 Feb - 03:52:31 10° WSW 04:01:13 14° SW 04:10:10 10° SSW visible
22 Feb - 18:40:54 10° SW 18:48:22 40° SSE 19:01:19 10° E daylight
22 Feb - 20:59:07 10° WSW 21:09:41 61° S 21:28:41 10° ESE daylight
22 Feb - 23:19:17 10° W 23:33:19 54° SSW 23:54:48 10° SE visible
23 Feb - 01:42:09 10° W 01:57:26 31° SW 02:15:54 10° SSE visible
23 Feb - 16:44:53 10° SSE 16:48:32 14° SE 16:53:07 10° ESE daylight
23 Feb - 18:59:39 10° SW 19:07:23 46° SSE 19:21:14 10° E daylight
23 Feb - 21:18:17 10° WSW 21:29:07 61° S 21:48:25 10° ESE daylight
23 Feb - 23:38:44 10° W 23:52:49 48° SSW 00:13:46 10° SE visible
24 Feb - 02:02:40 10° W 02:16:39 25° SW 02:33:05 10° S visible
24 Feb - 17:02:18 10° S 17:07:08 20° SE 17:13:59 10° E daylight
24 Feb - 19:18:33 10° SW 19:26:31 51° SSE 19:41:05 10° E daylight
24 Feb - 21:37:31 10° W 21:48:35 59° S 22:08:02 10° ESE daylight
24 Feb - 23:58:18 10° W 00:12:15 42° SSW 00:32:26 10° SE visible
25 Feb - 02:23:59 10° W 02:35:49 19° SW 02:49:19 10° S visible
25 Feb - 17:20:24 10° SSW 17:25:52 26° SE 17:34:15 10° E daylight
25 Feb - 19:37:33 10° WSW 19:45:45 55° SSE 20:00:54 10° E daylight
25 Feb - 21:56:48 10° W 22:08:03 55° S 22:27:30 10° ESE daylight
